Location: ???????
(55.8719°N, 38.1523°E)
Time: 11:01:57
(UTC+00:00)

COSMOS 2441 - Pass Details

Date: 14 April 2024
Orbit: 705 x 730 km, 98.2° (Epoch: 28 May)

Event Time Altitude Azimuth Distance (km) Brightness Sun altitude
Rises 23:59:08 0° 15° (NNE) 3,169 8.9 -17.5°
Reaches altitude 10° 00:01:25 10° 16° (NNE) 2,241 7.9 -17.3°
Maximum altitude 00:06:22 87° 105° (ESE) 737 4.4 -16.8°
Enters shadow 00:09:15 25° 195° (SSW) 1,442 5.4 -16.5°
